This is the latest recevied weather packets stored in our database for station/object K0BL. If no packets are shown the sender has not sent any weather packets the latest 10 day(s).
| Time | Temp. | Humidity | Pressure | Rain* | Wind** | Luminosity | Snow |
|---|---|---|---|---|---|---|---|
| 1777664011 | 16.11° C | 42% | 1013.7 hPa | 0 mm | - | 408 W/m² | - |
| 1777660710 | 16.67° C | 41% | 1013.7 hPa | 0 mm | - | 964 W/m² | - |
| 1777660406 | 16.11° C | 45% | 1013.7 hPa | 0 mm | - | 1023 W/m² | - |
| 1777659804 | 17.22° C | 41% | 1013.6 hPa | 0 mm | - | 351 W/m² | - |
| 1777659504 | 17.22° C | 41% | 1013.7 hPa | 0 mm | - | 1021 W/m² | - |
| 1777658006 | 15.56° C | 43% | 1013.8 hPa | 0 mm | - | 1017 W/m² | - |
| 1777655602 | 16.11° C | 42% | 1014.2 hPa | 0 mm | - | 971 W/m² | - |
| 1777654402 | 15.56° C | 43% | 1014.2 hPa | 0 mm | - | 935 W/m² | - |
| 1777652296 | 14.44° C | 47% | 1014.4 hPa | 0 mm | - | 810 W/m² | - |
| 1777651694 | 14.44° C | 45% | 1014.4 hPa | 0 mm | - | 791 W/m² | - |
| 1777651394 | 14.44° C | 45% | 1014.4 hPa | 0 mm | - | 777 W/m² | - |
| 1777648694 | 13.33° C | 49% | 1014.7 hPa | 0 mm | - | 688 W/m² | - |
| 1777647489 | 12.78° C | 54% | 1014.8 hPa | 0 mm | - | 594 W/m² | - |
| 1777643890 | 10° C | 61% | 1015.3 hPa | 0 mm | - | 486 W/m² | - |
| 1777643287 | 9.44° C | 63% | 1015.3 hPa | 0 mm | - | 403 W/m² | - |
| 1777640584 | 7.78° C | 71% | 1015.6 hPa | 0 mm | - | 121 W/m² | - |
| 1777639384 | 6.11° C | 79% | 1015.6 hPa | 0 mm | - | 172 W/m² | - |
| 1777637885 | 3.33° C | 89% | 1015.4 hPa | 0 mm | - | 59 W/m² | - |
| 1777632779 | 2.22° C | 92% | 1014.7 hPa | 0 mm | - | 0 W/m² | - |
| 1777632477 | 2.22° C | 93% | 1014.8 hPa | 0 mm | - | 0 W/m² | - |
| 1777630971 | 2.22° C | 92% | 1014.7 hPa | 0 mm | - | 0 W/m² | - |
| 1777629771 | 2.22° C | 91% | 1014.9 hPa | 0 mm | - | 0 W/m² | - |
| 1777628868 | 2.22° C | 90% | 1014.8 hPa | 0 mm | - | 0 W/m² | - |
| 1777627362 | 2.22° C | 90% | 1014.9 hPa | 0 mm | - | 0 W/m² | - |
| 1777625257 | 2.78° C | 88% | 1014.9 hPa | 0 mm | - | 0 W/m² | - |
* Rain latest hour (hover to see other rain measurements)
** Current wind speed in m/s (hover to see current wind gust speed)